Tracking 34719 objects as of 12-Jul-2026
HD Live streaming from Space Station
objects crossing your sky now

STARLINK-37454

Track STARLINK-37454 now!
10-day predictions
STARLINK-37454 is classified as:


NORAD ID: 69375
Int'l Code: 2026-123Y
Perigee: 350.1 km
Apogee: 351.9 km
Inclination: 53.2 °
Period: 91.4 minutes
Semi major axis: 6722 km
RCS: Unknown
Launch date: June 4, 2026
Source: United States (US)
Launch site: AIR FORCE EASTERN TEST RANGE (AFETR)
Your satellite tracking list
Your tracking list is empty




NASA's NSSDC Master Catalog

Two Line Element Set (TLE):
1 69375U 26123Y   26192.17523372  .00166214  00000-0  10664-2 0  9993
2 69375  53.1574 121.3436 0001341  70.8023 289.3143 15.75258393  5830
Source of the keplerian elements: AFSPC